Location: Unspecified
(0.0000°N, 0.0000°E)
Time: 06:49:02
(UTC+02:00)

ARIANE DEB (SPELDA) - Visible Passes

Search period start: 26 April 2015 00:00
Search period end: 06 May 2015 00:00
Orbit: 323 x 33203 km, 3.4° (Epoch: 24 April)

Date Brightness Start Highest point End Pass type
(mag) Time Alt. Az. Time Alt. Az. Time Alt. Az.
26 Apr 6.6 04:40:10 45° W 13:01:10 80° S 13:10:07 10° E visible
26 Apr 6.3 23:15:09 10° W 23:25:44 82° N 08:18:10 10° E visible
28 Apr 6.1 05:18:58 31° W 13:44:33 78° S 13:51:02 10° E visible
28 Apr 6.9 23:56:19 10° W 00:46:22 55° E 09:01:59 10° E visible
29 Apr 2.3 19:12:12 10° W 19:14:29 82° N 19:20:33 10° E visible
30 Apr 5.5 05:57:19 18° W 14:26:47 75° S 14:31:36 10° E visible
01 May 7.2 00:37:28 10° W 01:24:30 70° ENE 09:44:30 10° E visible
01 May 3.2 19:52:36 10° W 19:55:29 78° N 20:07:02 10° E visible
02 May 4.9 06:42:38 10° W 15:08:13 72° S 15:11:47 10° E visible
03 May 7.5 01:18:42 10° W 02:02:03 84° NE 10:26:04 10° E visible
03 May 4.0 20:32:38 10° W 20:36:27 77° N 20:59:30 10° E visible
03 May 4.0 20:32:38 10° W 20:36:27 77° N 20:59:29 10° E visible
04 May 3.7 08:11:55 10° W 15:49:00 70° S 15:51:44 10° E visible
05 May 7.9 02:00:10 10° W 10:46:13 84° S 11:06:51 10° E visible
05 May 4.7 21:12:24 10° W 21:17:31 78° N 22:23:53 10° E visible
05 May 4.7 21:12:24 10° W 21:17:30 78° N 22:23:53 10° E visible
05 May 4.7 21:12:25 10° W 21:17:31 78° N 22:23:53 10° E visible
